Weather History for Aberdeen / Amory, MS

Change the Weather History Date:

Tuesday, October 8, 2013

  Actual Average (KCBM) Record (KCBM)
Temperature  
Mean Temperature 64 °F -  
Max Temperature 80 °F 76 °F 89 °F (2007)
Min Temperature 48 °F 53 °F 35 °F (2000)
Degree Days  
Heating Degree Days 1    
Growing Degree Days 14 (Base 50)    
Moisture  
Dew Point 46 °F    
Average Humidity 56    
Maximum Humidity 58    
Minimum Humidity 53    
Precipitation  
Precipitation 0.00 in - - ()
Sea Level Pressure  
Sea Level Pressure 30.07 in    
Wind  
Wind Speed 3 mph (NNE)    
Max Wind Speed 9 mph    
Max Gust Speed -    
Visibility 8 miles    
Events      
Averages and records for this station are not official NWS values.
T = Trace of Precipitation, MM = Missing Value Source: NWS Daily Summary

Daily Weather History Graph

Daily Weather History Graph

Search for Another Location

Airport:

Trip Planner

Search our weather history database for the weather conditions in past years. The results will help you decide how hot, cold, wet, or windy it might be!

Date:

Astronomy

Oct. 08, 2013 Rise Set
Actual Time 6:53 AM CDT 6:28 PM CDT
Civil Twilight 6:28 AM CDT 6:53 PM CDT
Nautical Twilight 5:59 AM CDT 7:22 PM CDT
Astronomical Twilight 5:30 AM CDT 7:51 PM CDT
Moon 10:37 AM CDT (10/8) 9:15 PM CDT (10/8)
Length of Visible Light 12h 24m
Length of Day
11h 34m
Waxing Crescent, 16% of the Moon is Illuminated
Oct 8
Waxing Crescent
Oct 11
First Quarter
Oct 18
Full
Oct 26
Last Quarter
Nov 3
New

Hourly Weather History & Observations

Time (CDT) Temp. Heat Index Dew Point Humidity Pressure Visibility Wind Dir Wind Speed Gust Speed Precip Events Conditions
12:15 AM 50.0 °F - 35.6 °F 58% 30.09 in 1.0 mi Calm Calm - N/A   Haze
12:35 AM 50.0 °F - 33.8 °F 54% 30.08 in 1.8 mi North - - N/A   Haze
12:55 AM 50.0 °F - 33.8 °F 54% 30.08 in 2.5 mi Calm Calm - N/A   Haze
1:15 AM 48.2 °F - 33.8 °F 58% 30.08 in 9.0 mi North 4.6 mph - N/A   Clear
1:35 AM 50.0 °F - 33.8 °F 54% 30.08 in 8.0 mi North 3.5 mph - N/A   Clear
1:55 AM 50.0 °F - 33.8 °F 54% 30.08 in 8.0 mi North 3.5 mph - N/A   Clear
2:15 AM 50.0 °F - 33.8 °F 54% 30.08 in 7.0 mi North 3.5 mph - N/A   Clear
2:35 AM 50.0 °F - 33.8 °F 54% 30.08 in 8.0 mi NNW 3.5 mph - N/A   Clear
2:55 AM 50.0 °F - 33.8 °F 54% 30.07 in 7.0 mi North 3.5 mph - N/A   Clear
3:15 AM 48.2 °F - 33.8 °F 58% 30.07 in 7.0 mi Calm Calm - N/A   Clear
3:35 AM 50.0 °F - 33.8 °F 54% 30.07 in 7.0 mi North 3.5 mph - N/A   Clear
3:55 AM 48.2 °F - 33.8 °F 58% 30.07 in 10.0 mi North 4.6 mph - N/A   Clear
4:15 AM 50.0 °F - 35.6 °F 58% 30.07 in 10.0 mi North 5.8 mph - N/A   Clear
4:35 AM 50.0 °F - 33.8 °F 54% 30.07 in 10.0 mi NNE 4.6 mph - N/A   Clear
4:55 AM 48.2 °F - 33.8 °F 58% 30.07 in 9.0 mi Calm Calm - N/A   Clear
5:15 AM 48.2 °F - 33.8 °F 58% 30.07 in 10.0 mi Calm Calm - N/A   Clear
5:35 AM 48.2 °F - 33.8 °F 58% 30.07 in 10.0 mi North 3.5 mph - N/A   Clear
5:55 AM 48.2 °F - 33.8 °F 58% 30.07 in 10.0 mi NNW 3.5 mph - N/A   Clear
6:15 AM 48.2 °F - 33.8 °F 58% 30.07 in 9.0 mi North 3.5 mph - N/A   Clear
6:35 AM 48.2 °F - 33.8 °F 58% 30.08 in 9.0 mi North 3.5 mph - N/A   Clear
6:55 AM 48.2 °F - 33.8 °F 58% 30.08 in 10.0 mi North 4.6 mph - N/A   Clear
7:15 AM 48.2 °F - 33.8 °F 58% 30.08 in 8.0 mi North 5.8 mph - N/A   Clear
7:35 AM 50.0 °F - 33.8 °F 54% 30.09 in 7.0 mi North 4.6 mph - N/A   Clear
7:55 AM 51.8 °F - 35.6 °F 54% 30.09 in 9.0 mi North 6.9 mph - N/A   Clear
8:15 AM 53.6 °F - 37.4 °F 54% 30.09 in 9.0 mi North 6.9 mph - N/A   Clear
8:35 AM 55.4 °F - 39.2 °F 54% 30.09 in 8.0 mi NNE 8.1 mph - N/A   Clear
8:55 AM 55.4 °F - 39.2 °F 54% 30.10 in 8.0 mi NNE 9.2 mph - N/A   Clear
9:15 AM 59.0 °F - 42.8 °F 55% 30.10 in 8.0 mi NE 9.2 mph - N/A   Clear
9:35 AM 60.8 °F - 44.6 °F 55% 30.10 in 10.0 mi NE 9.2 mph - N/A   Clear
9:55 AM 62.6 °F - 46.4 °F 55% 30.11 in 10.0 mi NE 6.9 mph - N/A   Clear
10:15 AM 64.4 °F - 48.2 °F 56% 30.11 in 9.0 mi NE 4.6 mph - N/A   Clear
10:35 AM 66.2 °F - 50.0 °F 56% 30.10 in 9.0 mi NNE 5.8 mph - N/A   Scattered Clouds
10:55 AM 66.2 °F - 50.0 °F 56% 30.10 in 9.0 mi NNE 6.9 mph - N/A   Overcast
11:15 AM 68.0 °F - 51.8 °F 56% 30.10 in 10.0 mi East 4.6 mph - N/A   Overcast
11:35 AM 71.6 °F - 55.4 °F 57% 30.10 in 9.0 mi ENE 3.5 mph - N/A   Scattered Clouds
11:55 AM 73.4 °F - 55.4 °F 53% 30.09 in 9.0 mi ENE 3.5 mph - N/A   Partly Cloudy
12:15 PM 75.2 °F - 57.2 °F 53% 30.09 in 8.0 mi NE 3.5 mph - N/A   Partly Cloudy
12:35 PM 75.2 °F - 57.2 °F 53% 30.08 in 9.0 mi Calm Calm - N/A   Mostly Cloudy
12:55 PM 75.2 °F - 59.0 °F 57% 30.08 in 9.0 mi North 4.6 mph - N/A   Mostly Cloudy
1:15 PM 77.0 °F - 60.8 °F 57% 30.07 in 10.0 mi NW 3.5 mph - N/A   Clear
1:35 PM 78.8 °F - 62.6 °F 57% 30.06 in 9.0 mi ENE 4.6 mph - N/A   Clear
1:55 PM 78.8 °F - 60.8 °F 54% 30.06 in 9.0 mi NNE 8.1 mph - N/A   Mostly Cloudy
2:15 PM 77.0 °F - 60.8 °F 57% 30.05 in 9.0 mi NNW 5.8 mph - N/A   Mostly Cloudy
2:35 PM 78.8 °F - 62.6 °F 57% 30.05 in 9.0 mi NE 4.6 mph - N/A   Scattered Clouds
2:55 PM 80.6 °F 81.8 °F 62.6 °F 54% 30.04 in 9.0 mi NE 4.6 mph - N/A   Partly Cloudy
3:15 PM 80.6 °F 82.3 °F 64.4 °F 58% 30.04 in 9.0 mi North 3.5 mph - N/A   Partly Cloudy
3:35 PM 77.0 °F - 60.8 °F 57% 30.04 in 8.0 mi ENE 3.5 mph - N/A   Mostly Cloudy
3:55 PM 78.8 °F - 62.6 °F 57% 30.04 in 9.0 mi Calm Calm - N/A   Partly Cloudy
4:15 PM 80.6 °F 82.3 °F 64.4 °F 58% 30.04 in 9.0 mi North 5.8 mph - N/A   Scattered Clouds
4:35 PM 78.8 °F - 60.8 °F 54% 30.04 in 8.0 mi East 3.5 mph - N/A   Partly Cloudy
4:55 PM 80.6 °F 81.8 °F 62.6 °F 54% 30.04 in 9.0 mi NE 3.5 mph - N/A   Partly Cloudy
5:15 PM 78.8 °F - 62.6 °F 57% 30.04 in 9.0 mi Calm Calm - N/A   Partly Cloudy
5:35 PM 78.8 °F - 62.6 °F 57% 30.04 in 9.0 mi NW 3.5 mph - N/A   Clear
5:55 PM 77.0 °F - 60.8 °F 57% 30.04 in 9.0 mi WNW 3.5 mph - N/A   Clear
6:15 PM 73.4 °F - 57.2 °F 57% 30.05 in 9.0 mi NW 3.5 mph - N/A   Clear
6:35 PM 69.8 °F - 53.6 °F 56% 30.05 in 8.0 mi Calm Calm - N/A   Clear
6:55 PM 66.2 °F - 50.0 °F 56% 30.05 in 10.0 mi North - - N/A   Partly Cloudy
7:15 PM 64.4 °F - 48.2 °F 56% 30.05 in 10.0 mi Calm Calm - N/A   Clear
7:35 PM 62.6 °F - 46.4 °F 55% 30.06 in 9.0 mi North - - N/A   Clear
7:55 PM 62.6 °F - 46.4 °F 55% 30.06 in 9.0 mi Calm Calm - N/A   Clear
8:15 PM 60.8 °F - 44.6 °F 55% 30.06 in 8.0 mi North 4.6 mph - N/A   Clear
8:35 PM 60.8 °F - 44.6 °F 55% 30.07 in 10.0 mi Calm Calm - N/A   Partly Cloudy
8:55 PM 60.8 °F - 44.6 °F 55% 30.07 in 8.0 mi Calm Calm - N/A   Clear
9:15 PM 60.8 °F - 44.6 °F 55% 30.07 in 8.0 mi Calm Calm - N/A   Clear
9:35 PM 60.8 °F - 44.6 °F 55% 30.07 in 5.0 mi Calm Calm - N/A   Haze
9:55 PM 60.8 °F - 44.6 °F 55% 30.07 in 5.0 mi North - - N/A   Haze
10:15 PM 60.8 °F - 44.6 °F 55% 30.07 in 5.0 mi Calm Calm - N/A   Haze
10:35 PM 60.8 °F - 44.6 °F 55% 30.07 in 7.0 mi Calm Calm - N/A   Scattered Clouds
10:55 PM 60.8 °F - 44.6 °F 55% 30.07 in 5.0 mi Calm Calm - N/A   Haze
11:15 PM 60.8 °F - 44.6 °F 55% 30.07 in 7.0 mi Calm Calm - N/A   Partly Cloudy
11:35 PM 59.0 °F - 42.8 °F 55% 30.07 in 2.5 mi Calm Calm - N/A   Haze
11:55 PM 59.0 °F - 42.8 °F 55% 30.06 in 6.0 mi NE 3.5 mph - N/A   Haze